User: anonymous   Login
Location: Araquey
(29.9464°N, 81.3373°W)
Time: 01:51:28
(UTC+00:00)
Language:

Tiangong - Orbit

View from above orbital plane
View from above orbital plane
View from above satellite
View from above satellite

Ground track
Ground track

The orbit data is extracted from the following two-line orbital elements,

1 48274U 21035A   21291.60702546  .00015825  00000-0  18304-3 0  9991
2 48274  41.4702 250.3619 0002046 252.9095 102.4297 15.61509360 26992
Epoch (UTC): 18 October 2021 14:34:07
Eccentricity: 0.0002046
inclination: 41.4702°
perigee height: 382 km
apogee height: 384 km
right ascension of ascending node: 250.3619°
argument of perigee: 252.9095°
revolutions per day: 15.61509360
mean anomaly at epoch: 102.4297°
orbit number at epoch: 2699

The dashed part of the orbit path shows where the satellite is in the earth's shadow,  

DLR